Location: Flotzheim
(48.8375°N, 10.8136°E)
Time: 15:46:26
(UTC+00:00)

USA 267 - Pass Details

Date: 23 January 2021
Orbit: 1102 x 1106 km, 123.0° (Epoch: 22 February)

Event Time Altitude Azimuth Distance (km) Brightness Sun altitude
Exits shadow 19:26:07 34° 196° (SSW) 1,738 4.3 -33.6°
Drops below altitude 10° 19:29:46 10° 214° (SW) 2,955 5.7 -34.1°
Sets 19:32:19 0° 219° (SW) 3,910 6.5 -34.6°
